CW5398 Weather Reports


Display with metric or nautical units.
time (UTC)temp
F
wind
direction
speed
MPH
gust
MPH
rain 1hr
in
rain 24hr
in
rain mn
in
humidity
%
barometer
mb
20260906214516 75 315 2.0 8.0 0.00 0.00 0.00 46 1014.6
20260906213516 75 315 1.0 7.0 0.00 0.00 0.00 47 1014.8
20260906212516 74 315 1.0 6.0 0.00 0.00 0.00 50 1014.8
20260906211516 73 293 3.0 8.0 0.00 0.00 0.00 50 1014.8
20260906210516 73 293 3.0 7.0 0.00 0.00 0.00 52 1014.9
20260906205516 73 270 1.0 6.0 0.00 0.00 0.00 51 1014.8
20260906204517 72 270 1.0 3.0 0.00 0.00 0.00 56 1014.8
20260906203516 71 293 2.0 8.0 0.00 0.00 0.00 55 1015.0
20260906202518 71 315 2.0 7.0 0.00 0.00 0.00 54 1015.1
20260906201516 70 315 1.0 5.0 0.00 0.00 0.00 57 1015.1
20260906200557 69 315 1.0 4.0 0.00 0.00 0.00 58 1015.3
20260906195516 69 293 2.0 7.0 0.00 0.00 0.00 58 1015.5
20260906194516 68 293 2.0 7.0 0.00 0.00 0.00 60 1015.5
20260906193516 68 315 2.0 8.0 0.00 0.00 0.00 59 1015.5
20260906192516 68 315 2.0 6.0 0.00 0.00 0.00 62 1015.8
20260906191516 67 338 1.0 6.0 0.00 0.00 0.00 63 1015.8
20260906190516 67 270 3.0 10.0 0.00 0.00 0.00 62 1016.0
20260906185536 67 315 3.0 9.0 0.00 0.00 0.00 64 1016.0
20260906184516 67 315 3.0 8.0 0.00 0.00 0.00 64 1016.0
20260906183516 66 293 2.0 5.0 0.00 0.00 0.00 65 1016.0
20260906182556 66 293 3.0 9.0 0.00 0.00 0.00 62 1016.1
20260906181516 65 293 2.0 6.0 0.00 0.00 0.00 64 1016.1
20260906180516 65 293 2.0 8.0 0.00 0.00 0.00 65 1016.1
20260906175516 64 293 1.0 4.0 0.00 0.00 0.00 63 1016.2
20260906174516 64 270 2.0 7.0 0.00 0.00 0.00 66 1016.2
20260906173516 64 270 1.0 4.0 0.00 0.00 0.00 67 1016.2
20260906172516 64 270 1.0 4.0 0.00 0.00 0.00 68 1016.5
20260906171515 63 270 0.0 4.0 0.00 0.00 0.00 67 1016.5
20260906170516 62 270 1.0 5.0 0.00 0.00 0.00 69 1016.6
20260906165516 62 270 0.0 3.0 0.00 0.00 0.00 70 1016.7
20260906164516 61 270 1.0 4.0 0.00 0.00 0.00 73 1016.7
20260906163515 60 270 1.0 6.0 0.00 0.00 0.00 75 1016.9
20260906162516 59 270 2.0 7.0 0.00 0.00 0.00 79 1016.9
20260906161516 58 270 1.0 7.0 0.00 0.00 0.00 82 1016.9
20260906160516 57 270 1.0 7.0 0.00 0.00 0.00 85 1016.9
20260906155516 56 248 1.0 8.0 0.00 0.00 0.00 90 1016.9
20260906154516 54 225 0.0 5.0 0.00 0.00 0.00 92 1016.8
20260906153656 53 225 0.0 3.0 0.00 0.00 0.00 94 1016.9
20260906152515 52 225 0.0 1.0 0.00 0.00 0.00 95 1016.8
20260906151515 51 218 0.0 0.0 0.00 0.00 0.00 96 1016.8
20260906150515 50 218 0.0 0.0 0.00 0.00 0.00 96 1016.5
20260906145535 50 218 0.0 0.0 0.00 0.00 0.00 95 1016.4
20260906144515 50 218 0.0 0.0 0.00 0.00 0.00 95 1016.4
20260906143515 49 218 0.0 0.0 0.00 0.00 0.00 95 1016.3
20260906142516 49 218 0.0 0.0 0.00 0.00 0.00 95 1016.2
20260906141535 49 218 0.0 0.0 0.00 0.00 0.00 95 1016.2
20260906140515 49 218 0.0 0.0 0.00 0.00 0.00 95 1016.1
20260906135515 49 218 0.0 0.0 0.00 0.00 0.00 95 1016.0
20260906134515 49 218 0.0 0.0 0.00 0.00 0.00 95 1016.0
20260906133517 49 218 0.0 0.0 0.00 0.00 0.00 95 1016.1
20260906132517 49 218 0.0 0.0 0.00 0.00 0.00 95 1016.0
20260906131517 49 225 0.0 1.0 0.00 0.00 0.00 95 1016.0
20260906130537 49 218 0.0 0.0 0.00 0.00 0.00 95 1016.0
20260906125517 49 218 0.0 0.0 0.00 0.00 0.00 95 1016.1
20260906124517 49 218 0.0 0.0 0.00 0.00 0.00 95 1016.1
20260906123517 49 218 0.0 0.0 0.00 0.00 0.00 95 1016.1
20260906122517 49 218 0.0 0.0 0.00 0.00 0.00 95 1016.2
20260906121517 49 218 0.0 0.0 0.00 0.00 0.00 95 1016.2
20260906120517 48 218 0.0 0.0 0.00 0.00 0.00 94 1016.3
20260906115517 48 218 0.0 0.0 0.00 0.00 0.00 94 1016.3
20260906114517 49 218 0.0 0.0 0.00 0.00 0.00 94 1016.3
20260906113537 49 218 0.0 0.0 0.00 0.00 0.00 94 1016.3
20260906112517 49 218 0.0 0.0 0.00 0.00 0.00 94 1016.2
20260906111517 49 218 0.0 0.0 0.00 0.00 0.00 94 1016.2
20260906110517 49 218 0.0 0.0 0.00 0.00 0.00 94 1016.4
20260906105517 49 218 0.0 0.0 0.00 0.00 0.00 93 1016.4
20260906104517 49 218 0.0 0.0 0.00 0.00 0.00 93 1016.4
20260906103517 49 218 0.0 0.0 0.00 0.00 0.00 93 1016.4
20260906102517 49 218 0.0 0.0 0.00 0.00 0.00 93 1016.5
20260906101516 49 218 0.0 0.0 0.00 0.00 0.00 93 1016.5
20260906100516 49 218 0.0 0.0 0.00 0.00 0.00 93 1016.5
20260906095517 49 218 0.0 0.0 0.00 0.00 0.00 92 1016.5
20260906094516 49 218 0.0 0.0 0.00 0.00 0.00 92 1016.5
20260906093516 49 218 0.0 0.0 0.00 0.00 0.00 92 1016.2
20260906092516 50 218 0.0 0.0 0.00 0.00 0.00 92 1016.3
20260906091536 50 218 0.0 0.0 0.00 0.00 0.00 92 1016.3
20260906090517 50 218 0.0 0.0 0.00 0.00 0.00 92 1016.4
20260906085516 50 218 0.0 0.0 0.00 0.00 0.00 92 1016.5
20260906084516 50 218 0.0 0.0 0.00 0.00 0.00 92 1016.5
20260906083516 50 218 0.0 0.0 0.00 0.00 0.00 91 1016.6
20260906082537 50 218 0.0 0.0 0.00 0.00 0.00 91 1016.7
20260906081517 50 218 0.0 0.0 0.00 0.00 0.00 91 1016.7
20260906080536 51 218 0.0 0.0 0.00 0.00 0.00 91 1016.6
20260906075516 51 218 0.0 0.0 0.00 0.00 0.00 91 1016.6
20260906074517 51 218 0.0 0.0 0.00 0.00 0.00 90 1016.6
20260906073517 51 218 0.0 0.0 0.00 0.00 0.00 90 1016.7
20260906072516 51 218 0.0 0.0 0.00 0.00 0.00 90 1016.7
20260906071516 52 218 0.0 0.0 0.00 0.00 0.00 90 1016.7
20260906070516 52 218 0.0 0.0 0.00 0.00 0.00 90 1016.7
20260906065516 52 218 0.0 0.0 0.00 0.00 0.00 89 1016.6
20260906064516 52 218 0.0 0.0 0.00 0.00 0.00 89 1016.6
20260906063516 52 218 0.0 0.0 0.00 0.00 0.00 88 1016.6
20260906062516 53 218 0.0 0.0 0.00 0.00 0.00 88 1016.6
20260906061516 53 218 0.0 0.0 0.00 0.00 0.00 88 1016.6
20260906060516 53 218 0.0 0.0 0.00 0.00 0.00 87 1016.6
20260906055536 53 218 0.0 0.0 0.00 0.00 0.00 88 1016.6
20260906054516 53 218 0.0 0.0 0.00 0.00 0.00 87 1016.6
20260906053516 54 218 0.0 0.0 0.00 0.00 0.00 87 1016.7
20260906052536 54 218 0.0 0.0 0.00 0.00 0.00 87 1016.7
20260906051532 54 218 0.0 0.0 0.00 0.00 0.00 86 1016.7
20260906050521 54 218 0.0 0.0 0.00 0.00 0.00 86 1016.5
20260906045516 54 218 0.0 0.0 0.00 0.00 0.00 86 1016.6
20260906044536 55 218 0.0 0.0 0.00 0.00 0.00 85 1016.6
20260906043516 55 218 0.0 0.0 0.00 0.00 0.00 85 1016.5
20260906042516 55 218 0.0 0.0 0.00 0.00 0.00 84 1016.9
20260906041536 55 218 0.0 0.0 0.00 0.00 0.00 84 1016.9
20260906040516 56 218 0.0 0.0 0.00 0.00 0.00 83 1016.9
20260906035516 56 225 0.0 2.0 0.00 0.00 0.00 83 1017.0
20260906034515 56 218 0.0 0.0 0.00 0.00 0.00 82 1017.0
20260906033516 57 218 0.0 0.0 0.00 0.00 0.00 81 1017.0
20260906032516 57 218 0.0 0.0 0.00 0.00 0.00 80 1017.0
20260906031535 58 218 0.0 0.0 0.00 0.00 0.00 79 1017.0
20260906030515 58 218 0.0 0.0 0.00 0.00 0.00 78 1017.0
20260906025515 59 218 0.0 0.0 0.00 0.00 0.00 76 1017.0
20260906024515 60 218 0.0 0.0 0.00 0.00 0.00 74 1017.0
20260906023516 60 218 0.0 0.0 0.00 0.00 0.00 73 1016.9
20260906022515 61 218 0.0 0.0 0.00 0.00 0.00 71 1016.7
20260906021515 61 218 0.0 0.0 0.00 0.00 0.00 70 1016.7
20260906020515 61 218 0.0 0.0 0.00 0.00 0.00 70 1016.7
20260906015516 62 218 0.0 0.0 0.00 0.00 0.00 70 1016.6
20260906014535 62 218 0.0 0.0 0.00 0.00 0.00 69 1016.6
20260906013515 63 225 0.0 1.0 0.00 0.00 0.00 67 1016.6
20260906012515 63 225 1.0 4.0 0.00 0.00 0.00 65 1016.6
20260906011515 64 225 1.0 3.0 0.00 0.00 0.00 64 1016.6
20260906010515 64 225 1.0 3.0 0.00 0.00 0.00 65 1016.5
20260906005515 66 225 0.0 3.0 0.00 0.00 0.00 63 1016.3
20260906004517 67 225 1.0 5.0 0.00 0.00 0.00 61 1016.3
20260906003517 68 225 0.0 4.0 0.00 0.00 0.00 58 1016.1
20260906002517 69 225 0.0 2.0 0.00 0.00 0.00 55 1016.0
20260906001517 69 225 1.0 5.0 0.00 0.00 0.00 57 1016.0
20260906000517 68 225 0.0 1.0 0.00 0.00 0.00 57 1016.0
20260905235517 69 225 1.0 4.0 0.00 0.00 0.00 56 1016.0
20260905234517 68 225 0.0 1.0 0.00 0.00 0.00 57 1016.0
20260905233517 68 225 0.0 3.0 0.00 0.00 0.00 58 1016.0
20260905232517 68 225 0.0 4.0 0.00 0.00 0.00 57 1016.0
20260905231517 68 225 2.0 5.0 0.00 0.00 0.00 58 1016.0
20260905230517 69 225 0.0 3.0 0.00 0.00 0.00 57 1016.0
20260905225517 69 225 0.0 3.0 0.00 0.00 0.00 58 1016.2
20260905224517 69 225 1.0 6.0 0.00 0.00 0.00 57 1016.1
20260905223517 69 248 1.0 5.0 0.00 0.00 0.00 58 1016.4
20260905222517 69 225 1.0 4.0 0.00 0.00 0.00 58 1016.5
20260905221537 69 225 2.0 6.0 0.00 0.00 0.00 58 1016.5
20260905220517 69 225 1.0 5.0 0.00 0.00 0.00 58 1016.5
20260905215517 68 225 1.0 5.0 0.00 0.00 0.00 61 1016.7